Location: Carrières
(48.9495°N, 2.0407°E)
Time: 23:13:16
(UTC+00:00)

Cosmos 1606 Rocket - Pass Details

Date: 22 June 2024
Orbit: 599 x 628 km, 82.5° (Epoch: 15 July)

Event Time Altitude Azimuth Distance (km) Brightness Sun altitude
Rises 00:50:19 0° 356° (N) 2,921 8.5 -16.5°
Reaches altitude 10° 00:52:42 10° 4° (N) 2,005 7.5 -16.4°
Maximum altitude 00:56:52 39° 74° (ENE) 930 4.7 -16.3°
Enters shadow 01:00:30 13° 141° (SE) 1,791 5.6 -16.1°
